NOAA 16 DEB, 42359

Orbit data source: Space-Track

NOAA 16 DEB, 42359 is space debris in SSO originally from a launch on Thu, 21 Sep 2000 UTC launched from the Air Force Western Test Range (AFWTR). Debris objects in space refer to the collection of defunct objects orbiting the Earth. Examples of debris include non-operational satellites, rocket bodies, and fragments generated from explosions, collisions, or faulty payload assembly.

Loading next visibility...
Identifier
42359, 2000-055RB
Orbit
SSO
Country
Flag of USUS
Related business
Manufacturer
Unknown
Mission
Spacecraft
Bus & Motor
Unknown
Mass
Unknown
Launch date (UTC)
2000-09-21 (25 years ago)
Launch vehicle
Unknown
Launch site
Air Force Western Test Range (AFWTR)
Object type
Payload
Rocket body
Debris
Shape & HBR
Unknown
Radar Cross Section
Small (<0.1 m²)

Expand to show TLE details & history
Last TLE update: 1 week ago

TLE from 1 week ago
0 NOAA 16 DEB
1 42359U 00055RB  25234.22760725  .00004422  00000-0  13616-2 0  9991
2 42359  98.9612  31.5087 0014869 352.0476   8.0473 14.41949432487247
Epoch: 2025-08-22T05:27Z
TLE epoch observation values (Epoch: 2025-08-22T05:27:45.266Z)
Latitude
-0.0001°
Longitude
-21.20964°
Altitude
744.502 km
Speed
7.488 km/s
True Right ascension
02h 06m 02s
True Declination
0° 00' 00"
Sunlit
Object was in full shadow at epoch
Visualization orbit readout
Latitude
Unknown
Longitude
Unknown
Altitude
Unknown
Speed
Unknown
Apparent Right ascension
Unknown
Apparent Declination
Unknown
Sunlit
N/A
Visualization observer readout
Local Sidereal Time
22:24:35
Azimuth
Unknown
Elevation
Unknown
Doppler factor
Unknown
Orbital elements
Apogee altitude
759.804 km
Perigee altitude
738.609 km
Semi-major axis
7,127.343 km
Eccentricity
0.00149
Inclination
98.9612°
RAAN
31.5087°
Arg. of periapsis
352.0476°
True anomaly
8.0712°
Mean anomaly
8.0473°
Eccentric anomaly
8.05924°
Mean motion
3.60705 °/min
Orbital period
99.8 mins
BSTAR
0.0013616
Loading maneuver chart data...
Computing Atmospheric mass density...
Loading historical data...
Loading historical data...
Loading historical data...
Loading historical data...
Loading historical data...
Loading historical data...
Loading historical data...

Documentation

Showing up to 5 results
|